Zurück zum Katalog

STARLINK-6377

AktivKommunikationVLEO
NORAD 57341·PAYLOAD·🇺🇸 United States

Gestartet Jul 16, 2023 von Cape Canaveral Space Force Station

Loading…

Nächste Überflüge (nächste 24 Stunden)

TLE

AktuellSource: CelesTrak SupGP

Epoche: Sep 14, 2026, 22:16 UTC

1 57341C 23099P   26257.92826389  .00023712  00000+0  85912-3 0  2571
2 57341  43.0016 267.0395 0001751 268.2793 271.0989 15.27555730    16

Verfolge STARLINK-6377 in Echtzeit mit AllMySat

Download on the App Store